Theta_e
323 322 322 321 321 321 321 321 322 320 320 321 323 323 323 324 325 322 314 320 322 322 320 317 316 315 315 311 312 310 295 293 295 297 298 303 299 304 306 302 304 306 306 308 312
321 321 321 321 321 321 321 321 322 321 320 322 322 322 322 324 319 315 325 324 324 322 316 312 308 310 306 306 307 302 295 296 301 300 297 300 299 300 299 299 300 302 307 310 310
320 319 319 320 320 321 322 321 322 321 321 321 320 320 323 322 313 313 328 328 324 325 316 314 308 305 302 304 301 301 294 300 300 300 300 298 298 301 297 294 298 299 302 305 306
319 318 318 318 319 321 321 321 321 321 321 319 318 319 322 319 300 316 324 322 321 318 313 309 305 301 299 296 301 294 299 299 299 300 298 295 298 295 296 297 301 301 303 304 303
318 317 317 318 318 319 319 320 321 320 319 318 318 318 317 309 305 316 315 315 314 311 308 306 302 301 296 297 298 294 296 298 298 297 297 297 295 294 295 299 301 302 302 302 304
317 317 316 316 317 317 317 318 318 319 318 319 320 320 313 301 313 315 313 313 312 310 307 306 302 301 297 296 295 297 295 295 296 296 296 294 293 294 296 300 298 299 300 302 303
316 316 315 315 316 316 315 317 317 317 316 318 322 318 307 302 312 311 311 308 309 308 303 304 303 299 298 294 298 295 290 293 294 293 292 294 290 290 296 297 296 296 297 300 301
316 315 314 314 315 315 314 316 316 316 315 316 318 315 302 312 311 309 309 306 308 307 305 305 305 300 297 298 294 291 291 285 290 292 293 292 283 292 295 293 292 293 294 297 299
315 314 314 313 314 314 313 315 314 314 314 315 312 310 299 309 305 307 307 303 304 304 305 304 302 297 296 289 287 289 280 283 285 292 291 288 284 291 293 291 291 292 294 296 297
314 313 313 312 313 313 313 314 315 311 312 311 311 302 302 298 302 304 307 304 300 299 298 298 296 291 291 286 277 280 280 282 281 287 288 286 285 288 290 291 290 291 295 296 298
314 313 312 311 311 313 312 311 305 302 302 296 298 296 298 301 304 301 302 301 300 297 290 294 286 285 286 287 286 284 282 281 284 288 285 284 284 286 288 290 290 291 293 295 296
314 312 312 311 312 312 309 300 297 297 295 299 298 298 300 301 295 297 302 295 293 288 290 288 284 289 289 288 286 285 281 281 284 287 285 283 282 286 287 289 290 289 289 291 293
313 312 311 309 311 309 302 299 305 304 294 296 297 296 297 298 295 294 297 294 290 287 287 284 287 291 288 286 284 283 281 281 281 284 284 282 280 282 287 290 291 290 290 290 291
312 311 310 309 306 306 300 304 306 305 292 291 292 295 298 297 293 299 298 293 290 286 287 286 289 287 285 284 285 280 286 284 282 279 273 281 272 279 283 285 288 287 287 287 289
312 310 309 308 304 300 301 305 305 301 283 291 292 300 297 292 293 294 298 293 287 288 287 284 285 285 284 285 286 281 286 283 282 279 277 278 274 277 284 281 286 285 286 286 288
311 308 307 306 306 303 305 305 301 289 280 288 293 291 291 293 293 294 293 295 293 287 288 286 290 288 286 287 286 287 283 282 281 279 270 276 277 273 278 280 283 285 286 286 287
309 306 305 305 300 305 304 300 287 285 290 288 289 291 290 289 290 290 287 286 283 278 279 284 285 288 288 282 286 284 278 268 266 266 266 279 275 275 282 284 284 284 285 285 286
307 305 303 304 305 304 301 294 283 289 288 292 290 290 286 289 288 287 285 283 288 284 279 276 275 283 286 283 279 279 277 268 263 263 270 277 270 275 284 287 287 287 285 285 286
308 305 305 305 305 303 296 285 286 287 289 288 288 286 286 287 285 285 284 284 286 285 277 274 277 285 286 286 283 279 274 281 274 275 270 272 276 281 284 284 284 284 284 284 285
303 304 303 305 305 299 291 287 288 291 291 290 283 287 282 285 283 282 283 286 285 288 287 281 272 283 285 285 284 281 282 271 270 264 264 269 272 274 279 280 282 281 282 284 285
303 298 301 305 303 297 286 289 290 292 291 288 286 285 285 283 283 282 282 286 286 286 287 283 278 277 282 279 278 278 276 278 275 271 267 266 269 280 280 281 280 281 284 285 285
302 291 302 303 291 294 291 289 287 289 292 289 289 286 284 285 282 281 281 285 288 287 282 284 277 272 276 283 285 280 275 274 268 265 268 270 271 284 283 283 282 282 284 285 287
299 296 302 299 287 287 290 289 290 288 288 288 287 288 288 284 278 282 283 290 290 286 282 283 276 268 271 277 280 276 278 276 272 273 270 267 270 283 283 284 286 285 284 285 286
293 290 294 294 294 290 287 287 286 290 288 289 287 288 286 283 285 281 282 287 289 288 290 287 279 272 269 270 274 271 274 278 275 272 272 272 274 279 281 282 284 285 283 283 283
294 289 292 288 289 288 287 286 284 285 288 289 285 285 283 279 280 280 283 284 287 289 287 285 275 277 278 279 279 278 277 277 274 275 272 274 275 279 281 282 284 283 284 284 283
288 289 289 288 287 286 285 284 284 288 286 284 283 286 286 281 283 279 282 281 281 284 278 281 276 278 275 278 277 275 277 278 278 279 277 277 276 283 284 285 284 283 284 283 283
296 295 292 288 284 284 285 286 286 289 289 289 287 284 283 285 287 287 287 286 285 280 277 277 275 271 270 276 276 271 276 277 278 279 277 272 277 282 282 283 284 284 284 283 283
Wind_Speed
18 19 19 19 19 19 18 17 14 13 13 12 12 10 9 10 10 7 3 4 4 3 4 3 2 5 5 3 1 5 4 6 8 10 11 16 18 17 18 14 16 17 23 19 22
20 20 20 20 20 19 18 16 16 12 12 12 11 11 10 10 10 7 11 2 4 0 6 5 5 7 4 2 1 4 6 9 10 13 15 18 18 19 18 18 18 21 23 23 24
20 20 21 21 21 19 18 15 15 11 11 11 11 12 12 10 8 5 13 10 2 5 2 3 3 4 3 4 4 4 9 12 14 16 17 17 17 17 17 20 19 22 21 23 27
20 20 21 21 21 20 18 15 14 12 11 10 10 11 13 7 1 4 8 7 6 6 1 2 1 3 1 6 3 5 10 12 16 15 13 15 17 19 18 22 19 21 23 21 22
20 21 21 21 20 20 19 16 13 13 11 10 10 8 6 4 8 8 3 2 2 3 2 2 6 5 4 3 6 12 13 11 12 15 13 16 17 16 15 15 19 20 17 13 21
20 21 21 21 19 19 18 15 13 11 11 12 9 7 5 5 4 3 3 6 2 4 2 3 5 7 7 7 6 6 10 15 13 17 18 14 8 10 17 17 16 18 15 14 17
20 21 22 21 20 18 18 15 10 9 10 11 8 6 10 7 3 2 1 4 3 5 5 4 6 3 4 6 5 8 9 15 12 6 7 10 11 11 14 15 18 18 14 12 14
20 21 22 22 20 18 18 13 7 5 6 8 7 5 5 2 5 2 1 4 2 2 3 2 2 5 2 5 5 6 11 4 9 8 8 8 12 14 13 16 17 17 16 12 11
19 20 21 21 21 19 17 10 6 5 4 5 4 4 5 2 2 4 4 3 2 1 2 1 4 4 4 6 7 7 4 11 10 12 11 6 14 13 16 15 10 10 14 14 11
18 19 21 21 18 19 15 7 5 5 5 4 3 3 3 5 3 2 2 3 4 1 6 5 4 5 6 2 3 8 9 9 11 12 10 11 11 16 16 7 9 10 14 14 16
17 18 21 21 14 21 11 3 3 4 6 5 5 5 4 4 3 3 1 3 5 5 7 6 4 8 5 1 6 8 10 12 16 11 14 11 15 18 11 6 9 12 14 13 9
15 17 19 19 12 20 7 6 5 2 3 3 2 4 2 2 3 5 2 5 5 9 1 5 8 7 3 5 7 10 13 15 11 9 14 14 19 19 6 6 6 5 7 8 10
14 15 18 17 11 4 13 8 3 4 4 5 1 2 3 3 4 6 4 1 7 8 8 7 9 2 4 8 11 11 12 14 12 12 12 18 11 13 15 7 7 8 7 7 8
14 13 17 17 5 2 5 5 5 3 2 6 4 3 4 2 4 1 2 3 3 5 6 8 4 2 7 11 11 12 10 14 14 12 8 9 15 10 13 10 8 7 6 6 8
11 11 15 11 6 3 5 5 4 3 2 3 4 3 2 4 5 6 2 3 7 9 4 6 3 5 10 10 6 7 9 12 16 16 15 12 8 8 13 6 6 7 5 6 8
8 10 15 1 3 3 5 3 2 0 2 2 2 1 5 10 4 2 4 3 6 6 9 15 12 5 5 8 8 10 11 14 14 11 9 8 10 3 6 8 3 6 6 7 7
4 6 6 4 3 5 4 3 2 4 3 3 1 2 7 8 5 4 7 7 5 5 3 9 10 8 2 6 8 5 7 6 6 3 5 10 10 6 9 5 2 4 5 8 8
2 4 1 2 3 5 3 1 4 4 6 2 3 8 7 5 1 3 5 9 6 2 3 3 3 4 6 2 4 8 4 4 5 3 11 10 8 8 13 7 6 5 8 10 11
4 4 2 2 4 3 1 4 1 4 3 7 12 4 3 3 2 4 6 9 3 4 2 2 4 2 3 6 1 4 4 2 8 10 10 7 11 10 11 10 10 10 10 9 9
3 2 3 1 4 3 3 2 2 3 2 2 3 1 3 5 2 2 4 5 3 1 6 3 6 8 2 2 7 9 6 2 2 5 5 5 12 13 9 14 8 8 7 9 8
3 3 3 2 3 2 3 2 2 4 1 2 4 5 5 5 2 2 5 4 2 4 5 2 4 3 7 6 8 4 3 5 1 3 4 7 5 10 19 11 7 8 8 8 7
2 2 2 2 1 2 1 2 1 2 3 3 3 5 6 8 4 4 5 3 5 3 3 4 3 4 10 17 6 3 3 3 3 8 4 4 16 14 14 10 5 10 6 6 6
1 2 2 3 2 2 1 1 2 4 4 4 5 6 5 3 4 6 5 1 2 0 2 1 3 5 6 3 5 0 4 5 3 1 16 11 11 12 14 14 11 12 6 5 7
2 2 1 2 2 1 3 2 3 5 4 5 7 5 6 4 8 5 4 2 3 7 11 6 5 9 10 10 5 8 7 8 7 8 13 15 21 16 18 17 18 19 5 6 6
2 4 2 3 4 4 3 2 3 4 4 2 3 10 6 4 6 11 13 9 6 7 8 4 8 11 13 17 18 18 18 19 14 17 14 21 21 22 20 17 19 6 5 5 6
6 4 1 1 3 6 7 7 9 5 7 6 8 6 9 11 11 14 13 9 11 5 2 2 14 11 13 16 19 23 23 21 18 20 16 20 22 21 17 14 11 6 5 5 6
2 1 3 7 5 5 6 7 7 4 9 10 7 7 8 11 7 7 9 9 9 6 5 3 2 3 16 12 14 16 15 14 13 10 5 7 9 10 9 8 7 4 4 3 6
Wind_Direction
1 360 356 351 347 341 336 332 324 329 331 326 322 325 321 317 305 226 269 28 93 116 290 290 301 343 279 247 107 321 266 270 274 292 326 346 336 323 320 310 317 310 307 303 309
5 2 358 353 349 343 339 332 325 328 334 329 342 343 330 324 283 67 346 139 107 40 266 34 355 335 296 251 215 210 267 265 335 333 319 325 316 314 311 305 303 300 298 310 310
6 2 358 355 351 347 348 343 333 340 331 335 349 342 326 305 262 68 43 88 95 253 349 74 42 333 280 313 302 270 258 293 305 315 318 308 309 313 308 293 291 297 301 309 308
4 360 357 355 355 354 354 352 344 335 341 346 339 321 326 252 38 103 59 45 3 354 90 130 75 251 15 282 282 288 282 292 299 303 319 302 298 290 286 287 291 285 283 280 281
3 359 355 355 355 355 354 353 354 347 345 338 323 313 314 175 74 132 208 158 244 258 294 263 257 286 231 292 283 258 269 289 305 294 284 274 266 279 284 296 292 289 284 300 307
1 357 353 352 351 349 345 339 338 346 338 327 279 295 259 137 125 91 342 295 328 305 164 268 315 324 304 283 270 329 323 296 276 260 254 273 313 318 287 281 302 305 284 296 294
359 354 351 348 346 346 343 339 340 339 341 343 32 248 47 85 39 356 164 44 359 343 322 28 319 282 33 274 313 284 281 275 256 351 333 332 301 292 303 308 294 289 281 263 264
356 352 348 346 345 343 341 341 350 342 342 331 338 286 66 54 341 43 270 111 42 47 9 329 312 282 307 286 249 227 236 276 342 336 324 316 293 306 310 299 298 297 296 287 273
356 350 346 346 343 340 334 322 315 307 299 288 281 267 97 158 239 16 323 324 76 168 138 349 249 300 182 250 290 176 305 327 319 321 305 330 309 309 312 303 324 344 343 340 331
356 348 346 346 341 334 318 286 287 294 236 246 248 231 174 63 58 338 61 297 251 222 236 229 228 249 234 251 308 318 317 310 305 296 335 305 295 312 297 6 351 348 25 15 8
352 347 348 348 333 340 316 197 228 185 38 10 30 99 90 97 177 199 51 211 220 229 266 185 271 244 75 62 285 308 293 286 281 318 303 304 304 294 290 56 26 9 3 4 352
351 345 348 348 319 339 8 54 56 215 313 129 110 109 62 335 228 163 248 243 192 269 142 228 231 51 22 291 275 275 281 289 296 324 326 306 293 280 271 120 93 65 17 359 355
349 346 343 341 322 311 66 60 347 331 262 151 73 301 80 284 303 129 204 31 264 284 264 271 287 302 277 293 291 292 294 303 320 318 298 292 301 325 310 165 125 76 41 358 3
347 349 338 329 299 319 59 11 341 322 273 141 193 125 189 270 241 31 225 319 257 280 335 276 96 2 295 285 286 297 313 332 318 314 300 315 295 278 276 283 97 82 56 8 7
352 350 332 345 313 46 348 335 309 250 50 138 127 77 228 255 345 168 98 216 269 299 331 271 237 282 298 295 332 285 324 310 293 280 285 277 279 288 291 318 68 60 21 33 25
349 347 328 277 112 26 335 316 239 192 31 152 100 237 271 198 217 116 223 205 280 297 258 260 277 283 272 316 303 287 294 281 278 275 262 264 270 275 303 304 36 30 345 39 25
359 342 342 316 29 339 308 229 25 71 193 116 320 257 309 275 276 196 272 241 262 296 332 332 254 184 108 289 303 201 309 321 333 9 238 324 320 290 319 66 30 288 351 29 18
282 302 109 29 347 317 260 288 55 279 39 355 282 291 271 12 211 325 275 271 227 305 308 307 317 156 141 241 319 302 250 180 286 307 302 321 271 287 294 177 214 50 29 14 6
296 208 178 92 320 291 254 52 65 20 340 343 303 256 274 139 264 342 272 272 79 136 207 336 247 76 209 262 10 321 296 244 289 271 279 236 259 298 9 27 14 17 12 0 1
300 278 96 21 309 257 73 228 50 47 342 275 291 24 321 10 288 40 298 27 106 81 90 340 305 275 282 35 248 214 269 339 311 280 286 298 319 287 14 344 358 3 348 354 353
260 294 103 320 270 251 130 50 351 75 344 275 294 296 275 277 108 328 272 298 48 135 113 17 192 282 340 219 243 191 242 225 286 247 268 300 252 334 331 348 357 313 18 3 341
277 280 72 276 10 279 247 47 62 279 166 274 283 264 265 292 230 237 248 220 83 352 245 181 241 259 259 270 325 17 286 126 171 281 242 267 277 271 280 310 299 295 12 356 351
212 259 151 284 184 230 113 274 236 214 228 196 255 227 315 293 286 232 279 84 38 160 275 77 239 303 303 357 29 298 275 208 206 289 258 260 267 313 294 300 340 327 317 4 2
114 261 175 345 329 336 90 270 265 191 262 254 261 257 279 273 258 262 254 278 187 229 241 146 231 206 238 245 291 282 237 243 232 254 277 261 286 297 297 320 323 315 354 4 5
142 229 353 209 216 131 131 155 251 257 213 229 262 235 200 244 257 249 259 278 264 257 225 223 242 236 253 268 274 276 266 257 241 245 247 275 279 284 286 296 299 305 352 356 1
148 170 9 135 124 131 172 208 206 214 165 222 230 256 223 228 236 274 284 273 249 240 216 229 266 274 274 284 279 276 271 265 252 253 248 260 268 275 285 286 296 274 327 1 345
135 66 141 158 164 163 202 202 206 202 222 243 253 259 250 265 298 319 304 294 275 255 181 233 241 270 271 272 290 286 260 250 256 254 236 274 283 303 291 287 299 350 322 360 345